When you browse on this site, cookies collect data to enhance your experience and personalize the content and advertising you see.
Visit our Privacy Policy to learn more. By continuing to use the site, you agree to this use of cookies and data.
  • In Czech Republic
  • List of Countries
  • For 7 days
  • Water Temperature
  • Satellite Maps
  • Weather Map
  • Weather Widgets
  • user-avatar
    Login

    Hourly Weather Mission Bend

    Today, 23 July, Tuesday

    Time Temperature Precipitation Wind Pressure Humidity
    00:00 +28°C° 0.1 mm 3 mps 758 mmHg 84%
    01:00 +28°C° 0.5 mm 3 mps 758 mmHg 84%
    02:00 +28°C° 0.5 mm 3 mps 758 mmHg 84%
    03:00 +27°C° 0.5 mm 3 mps 758 mmHg 84%
    04:00 +27°C° 1.1 mm 3 mps 758 mmHg 85%
    05:00 +27°C° 1.1 mm 4 mps 758 mmHg 86%
    06:00 +27°C° 1.1 mm 4 mps 758 mmHg 87%
    07:00 +27°C° 1.2 mm 4 mps 759 mmHg 84%
    08:00 +28°C° 1.2 mm 4 mps 759 mmHg 81%
    09:00 +29°C° 1.2 mm 4 mps 760 mmHg 79%
    10:00 +29°C° 0.3 mm 4 mps 760 mmHg 77%
    11:00 +29°C° 0.3 mm 4 mps 760 mmHg 75%
    12:00 +29°C° 0.3 mm 4 mps 760 mmHg 74%
    13:00 +32°C° 0 mm 4 mps 759 mmHg 67%
    14:00 +33°C° 0 mm 4 mps 759 mmHg 60%
    15:00 +35°C° 0 mm 4 mps 758 mmHg 53%
    16:00 +34°C° 0 mm 4 mps 758 mmHg 52%
    17:00 +34°C° 0 mm 4 mps 758 mmHg 52%
    18:00 +34°C° 0 mm 4 mps 758 mmHg 51%
    19:00 +33°C° 0 mm 4 mps 758 mmHg 51%
    20:00 +30°C° 0 mm 4 mps 759 mmHg 50%
    21:00 +29°C° 0 mm 3 mps 759 mmHg 50%
    22:00 +29°C° 0 mm 3 mps 759 mmHg 52%
    23:00 +28°C° 0 mm 3 mps 760 mmHg 55%

    Tomorrow, 24 July, Wednesday

    Time Temperature Precipitation Wind Pressure Humidity
    00:00 +27°C° 0 mm 3 mps 760 mmHg 57%
    01:00 +27°C° 0 mm 3 mps 760 mmHg 58%
    02:00 +26°C° 0 mm 3 mps 760 mmHg 59%
    03:00 +26°C° 0 mm 3 mps 760 mmHg 59%
    04:00 +25°C° 0 mm 3 mps 760 mmHg 59%
    05:00 +24°C° 0 mm 3 mps 760 mmHg 59%
    06:00 +24°C° 0 mm 3 mps 761 mmHg 59%
    07:00 +25°C° 0 mm 4 mps 761 mmHg 58%
    08:00 +26°C° 0 mm 4 mps 761 mmHg 56%
    09:00 +27°C° 0 mm 4 mps 761 mmHg 55%
    10:00 +29°C° 0 mm 4 mps 761 mmHg 50%
    11:00 +30°C° 0 mm 4 mps 761 mmHg 45%
    12:00 +33°C° 0 mm 4 mps 761 mmHg 40%
    13:00 +33°C° 0 mm 4 mps 760 mmHg 38%
    14:00 +34°C° 0 mm 4 mps 760 mmHg 35%
    15:00 +35°C° 0 mm 4 mps 759 mmHg 32%
    16:00 +34°C° 0 mm 3 mps 759 mmHg 36%
    17:00 +33°C° 0 mm 3 mps 759 mmHg 40%
    18:00 +33°C° 0 mm 3 mps 759 mmHg 44%
    19:00 +30°C° 0 mm 2 mps 759 mmHg 47%
    20:00 +29°C° 0 mm 2 mps 759 mmHg 50%
    21:00 +27°C° 0 mm 1 mps 759 mmHg 52%
    22:00 +27°C° 0 mm 1 mps 759 mmHg 54%
    23:00 +26°C° 0 mm 1 mps 760 mmHg 55%

    Day after tomorrow, 25 July, Thursday

    Time Temperature Precipitation Wind Pressure Humidity
    00:00 +26°C° 0 mm 1 mps 760 mmHg 57%
    01:00 +25°C° 0 mm 1 mps 760 mmHg 59%
    02:00 +25°C° 0 mm 2 mps 760 mmHg 61%
    03:00 +25°C° 0 mm 2 mps 760 mmHg 62%
    04:00 +24°C° 0 mm 2 mps 760 mmHg 64%
    05:00 +24°C° 0 mm 2 mps 760 mmHg 66%
    06:00 +24°C° 0 mm 2 mps 760 mmHg 67%
    07:00 +25°C° 0 mm 2 mps 760 mmHg 63%
    08:00 +27°C° 0 mm 3 mps 761 mmHg 59%
    09:00 +28°C° 0 mm 3 mps 761 mmHg 54%
    10:00 +30°C° 0 mm 3 mps 761 mmHg 48%
    11:00 +31°C° 0 mm 3 mps 761 mmHg 41%
    12:00 +34°C° 0 mm 2 mps 761 mmHg 34%
    13:00 +34°C° 0 mm 3 mps 760 mmHg 33%
    14:00 +35°C° 0 mm 3 mps 760 mmHg 32%
    15:00 +35°C° 0 mm 3 mps 759 mmHg 31%
    16:00 +34°C° 0 mm 3 mps 759 mmHg 37%
    17:00 +33°C° 0 mm 3 mps 759 mmHg 43%
    18:00 +32°C° 0 mm 4 mps 759 mmHg 49%
    19:00 +29°C° 0 mm 3 mps 759 mmHg 53%
    20:00 +28°C° 0 mm 3 mps 760 mmHg 56%
    21:00 +26°C° 0 mm 3 mps 760 mmHg 60%
    22:00 +26°C° 0 mm 2 mps 760 mmHg 61%
    23:00 +26°C° 0 mm 1 mps 760 mmHg 62%

    26 July, Friday

    Time Temperature Precipitation Wind Pressure Humidity
    00:00 +25°C° 0 mm 1 mps 760 mmHg 63%
    01:00 +25°C° 0 mm 1 mps 760 mmHg 64%
    02:00 +25°C° 0 mm 1 mps 760 mmHg 65%
    03:00 +23°C° 0 mm 0 mps 760 mmHg 65%
    04:00 +24°C° 0 mm 1 mps 760 mmHg 67%
    05:00 +24°C° 0 mm 1 mps 761 mmHg 68%
    06:00 +24°C° 0 mm 2 mps 761 mmHg 69%
    07:00 +26°C° 0 mm 2 mps 761 mmHg 65%
    08:00 +28°C° 0 mm 3 mps 761 mmHg 61%
    09:00 +30°C° 0 mm 3 mps 762 mmHg 57%
    10:00 +31°C° 0 mm 3 mps 762 mmHg 53%
    11:00 +33°C° 0 mm 3 mps 762 mmHg 49%
    12:00 +35°C° 0 mm 3 mps 762 mmHg 44%
    13:00 +35°C° 0 mm 3 mps 761 mmHg 45%
    14:00 +35°C° 0 mm 4 mps 761 mmHg 46%
    15:00 +35°C° 0 mm 4 mps 760 mmHg 47%
    16:00 +34°C° 0 mm 4 mps 760 mmHg 52%
    17:00 +33°C° 0 mm 4 mps 760 mmHg 58%
    18:00 +32°C° 0 mm 4 mps 760 mmHg 63%
    19:00 +30°C° 0 mm 4 mps 760 mmHg 68%
    20:00 +29°C° 0 mm 3 mps 761 mmHg 72%
    21:00 +28°C° 0 mm 3 mps 761 mmHg 77%
    22:00 +28°C° 0 mm 3 mps 761 mmHg 78%
    23:00 +27°C° 0 mm 2 mps 761 mmHg 79%

    27 July, Saturday

    Time Temperature Precipitation Wind Pressure Humidity
    00:00 +27°C° 0 mm 2 mps 761 mmHg 81%
    01:00 +27°C° 0 mm 2 mps 761 mmHg 81%
    02:00 +27°C° 0 mm 1 mps 761 mmHg 81%
    03:00 +27°C° 0 mm 1 mps 761 mmHg 81%
    04:00 +27°C° 0.3 mm 1 mps 761 mmHg 82%
    05:00 +27°C° 0.3 mm 1 mps 761 mmHg 82%
    06:00 +26°C° 0.3 mm 1 mps 762 mmHg 83%
    07:00 +28°C° 0.8 mm 1 mps 762 mmHg 76%
    08:00 +30°C° 0.8 mm 2 mps 762 mmHg 70%
    09:00 +31°C° 0.8 mm 2 mps 763 mmHg 64%
    10:00 +32°C° 0.6 mm 2 mps 762 mmHg 60%
    11:00 +34°C° 0.6 mm 2 mps 762 mmHg 55%
    12:00 +35°C° 0.6 mm 3 mps 762 mmHg 50%
    13:00 +35°C° 0.4 mm 3 mps 762 mmHg 52%
    14:00 +35°C° 0.4 mm 3 mps 761 mmHg 53%
    15:00 +35°C° 0.4 mm 4 mps 761 mmHg 55%
    16:00 +34°C° 0.4 mm 4 mps 761 mmHg 58%
    17:00 +33°C° 0.4 mm 4 mps 761 mmHg 62%
    18:00 +33°C° 0.4 mm 4 mps 761 mmHg 65%
    19:00 +31°C° 0 mm 3 mps 761 mmHg 68%
    20:00 +30°C° 0 mm 3 mps 761 mmHg 71%
    21:00 +29°C° 0 mm 3 mps 762 mmHg 74%
    22:00 +28°C° 0 mm 3 mps 762 mmHg 76%
    23:00 +28°C° 0 mm 2 mps 762 mmHg 78%

    28 July, Sunday

    Time Temperature Precipitation Wind Pressure Humidity
    00:00 +28°C° 0 mm 2 mps 762 mmHg 80%
    01:00 +28°C° 0 mm 2 mps 762 mmHg 81%
    02:00 +27°C° 0 mm 2 mps 762 mmHg 82%
    03:00 +27°C° 0 mm 1 mps 762 mmHg 83%
    04:00 +27°C° 0 mm 1 mps 762 mmHg 84%
    05:00 +27°C° 0 mm 1 mps 762 mmHg 85%
    06:00 +27°C° 0 mm 1 mps 762 mmHg 86%
    07:00 +28°C° 0.3 mm 2 mps 762 mmHg 82%
    08:00 +30°C° 0.3 mm 2 mps 763 mmHg 77%
    09:00 +31°C° 0.3 mm 3 mps 763 mmHg 72%
    10:00 +33°C° 0.3 mm 3 mps 763 mmHg 67%
    11:00 +34°C° 0.3 mm 4 mps 763 mmHg 63%
    12:00 +35°C° 0.3 mm 4 mps 762 mmHg 58%
    13:00 +35°C° 0.2 mm 5 mps 762 mmHg 58%
    14:00 +35°C° 0.2 mm 5 mps 762 mmHg 58%
    15:00 +35°C° 0.2 mm 6 mps 761 mmHg 57%
    16:00 +35°C° 0 mm 5 mps 761 mmHg 60%
    17:00 +34°C° 0 mm 5 mps 761 mmHg 64%
    18:00 +33°C° 0 mm 5 mps 761 mmHg 67%
    19:00 +32°C° 0 mm 4 mps 761 mmHg 71%
    20:00 +30°C° 0 mm 4 mps 761 mmHg 75%
    21:00 +28°C° 0 mm 3 mps 761 mmHg 79%
    22:00 +28°C° 0 mm 3 mps 761 mmHg 79%
    23:00 +28°C° 0 mm 3 mps 761 mmHg 80%
    Show more